Wind_Speed
29 30 31 31 32 33 34 34 34 34 35 35 36 37 37 38 39 40 40 41 42 42 43 44 44 44 44 45 45 45 45 45 46 46 45 45 45 44 45 46 46 47 47 48
30 31 32 33 33 34 34 34 34 35 35 35 36 37 37 38 39 39 39 40 40 41 42 43 44 44 45 46 45 45 45 46 47 46 46 46 46 45 44 45 46 47 48 49
31 32 32 33 33 34 34 34 34 34 34 35 36 36 36 38 39 38 38 38 38 39 40 42 43 44 45 46 46 46 46 46 48 47 47 46 46 45 45 45 45 47 49 49
32 33 33 34 34 34 34 34 34 35 35 35 36 37 35 36 37 37 36 36 37 38 39 40 42 43 45 46 47 46 46 47 48 47 46 47 46 46 45 46 47 47 48 49
33 33 34 34 34 34 34 34 35 35 36 36 35 38 36 34 36 36 36 35 36 37 38 38 40 42 44 46 47 47 47 47 48 48 48 47 47 47 46 47 48 48 48 49
33 33 34 34 34 34 34 35 35 36 36 36 34 36 36 34 35 35 35 35 35 36 36 37 39 40 42 44 46 47 47 48 48 49 49 48 47 48 47 48 48 48 48 50
33 33 34 34 34 34 35 35 35 36 36 36 34 35 36 35 35 35 34 34 34 35 36 36 37 38 40 42 44 46 47 48 49 50 49 49 47 48 48 48 49 48 49 50
34 34 34 34 34 35 34 34 34 36 37 36 34 35 35 35 35 35 34 34 34 34 35 36 37 37 39 41 43 45 47 48 49 49 49 48 48 48 48 48 49 49 50 51
34 34 34 34 34 34 34 34 34 35 37 36 35 35 34 34 34 33 34 34 33 34 35 35 37 38 38 40 41 43 46 47 48 49 49 49 48 48 49 49 49 50 50 50
34 35 34 34 34 34 34 34 34 34 35 36 35 34 34 34 32 33 33 33 33 33 35 35 36 36 38 39 40 41 43 45 47 48 49 49 49 49 48 49 50 50 49 50
35 35 34 34 34 33 33 33 33 34 34 34 35 33 33 34 34 33 33 33 33 33 34 34 35 35 36 37 39 41 42 43 45 47 48 48 48 48 48 48 50 50 50 50
35 35 35 34 34 33 33 32 32 33 34 34 35 34 33 33 34 35 35 34 33 33 33 33 34 35 36 36 37 38 40 41 43 44 46 47 48 47 46 47 48 50 51 51
35 34 35 34 34 33 33 32 32 32 34 34 34 33 33 33 33 35 36 36 35 34 33 34 34 35 35 36 37 38 38 39 40 42 44 45 47 47 46 47 48 49 51 52
35 34 34 34 33 33 33 33 32 33 34 34 33 33 33 33 33 34 35 35 34 35 35 34 34 34 34 35 35 37 37 38 39 40 43 44 45 46 46 47 47 49 50 51
34 34 34 34 34 34 34 33 33 33 34 35 34 35 34 34 33 33 33 33 34 34 34 35 34 34 35 35 35 36 37 37 39 40 41 43 44 45 45 46 47 47 48 51
34 35 34 34 34 34 34 33 33 34 34 35 35 35 35 34 33 33 33 33 33 33 34 34 35 34 34 35 35 35 36 37 37 39 41 42 43 44 45 45 46 46 47 49
34 35 35 34 34 34 34 33 34 34 33 34 34 34 35 34 34 34 34 34 34 34 34 34 34 34 34 34 34 35 35 36 36 38 40 42 42 43 43 44 44 44 46 47
35 35 35 35 34 35 34 34 34 33 32 33 33 34 35 35 35 35 35 34 34 33 33 33 33 32 32 32 32 32 33 33 34 35 37 39 41 41 42 43 44 44 45 46
34 35 35 36 36 36 34 34 34 34 33 33 34 34 35 35 35 35 35 34 33 33 33 33 33 32 31 30 30 29 30 31 32 34 35 38 39 41 42 43 44 44 44 45
34 35 35 36 37 36 36 35 35 36 35 35 35 35 36 36 36 35 35 35 34 33 33 32 32 32 31 30 30 29 29 30 31 33 35 36 38 39 40 42 43 43 44 44
34 34 34 35 36 37 36 36 35 35 36 36 36 36 37 37 37 36 35 35 34 34 33 33 32 32 31 30 30 29 29 29 30 31 33 35 37 38 40 41 42 43 44 44
33 34 34 35 36 36 36 36 35 35 35 36 36 36 37 36 36 35 35 34 33 33 33 32 31 30 30 29 28 28 28 29 29 30 32 33 35 37 38 40 41 43 44 44
33 33 34 35 35 35 35 35 36 36 36 36 36 36 35 35 34 34 34 33 32 32 31 30 29 29 28 28 27 28 28 29 30 30 31 33 34 34 36 37 38 40 41 43
32 33 34 34 34 34 34 35 35 36 35 35 35 35 34 33 33 33 32 32 30 30 29 28 28 28 28 28 27 27 27 28 30 30 31 31 32 33 34 35 36 37 38 40
32 32 33 33 33 34 34 35 35 35 35 34 33 33 32 31 32 31 30 29 28 27 27 27 26 27 27 27 26 26 26 27 28 29 30 30 31 32 32 33 34 35 36 36
30 30 31 31 32 32 32 33 33 33 33 32 32 31 30 30 30 29 28 27 27 26 26 26 25 25 25 26 26 26 26 26 27 28 29 30 31 31 32 32 33 34 35 36
Wind_Direction
301 300 300 301 299 297 294 291 289 288 284 282 281 281 280 277 276 274 273 271 269 265 262 260 259 258 256 255 255 254 254 254 254 253 253 252 252 252 250 248 246 243 240 239
302 301 302 301 301 299 296 293 292 290 287 285 283 282 282 280 278 276 275 272 269 265 262 260 258 258 257 255 254 255 254 254 254 253 253 253 252 250 249 247 245 243 240 238
303 304 303 302 301 300 298 295 294 292 289 287 287 286 285 283 281 278 277 274 271 266 263 261 259 259 258 256 255 255 255 254 254 254 253 252 250 249 248 247 244 241 240 238
302 303 303 303 302 301 299 297 295 294 291 289 290 290 288 286 283 281 280 278 273 269 265 263 261 259 258 257 256 256 255 254 253 253 252 251 250 248 247 247 245 242 240 239
302 302 302 302 303 302 302 299 297 296 293 291 292 293 292 290 285 283 282 280 277 272 267 265 264 261 259 257 255 255 254 253 252 252 251 251 249 247 246 246 245 243 241 240
301 301 301 302 302 302 301 300 297 296 296 293 293 295 294 292 289 284 282 280 279 275 271 268 266 263 261 258 256 254 253 253 252 251 250 250 249 246 245 245 244 244 244 242
300 301 302 302 301 301 301 301 300 299 298 297 295 295 295 292 290 287 285 283 281 277 274 272 269 266 262 260 258 255 253 253 252 251 250 250 249 246 244 245 244 244 245 244
301 301 302 302 302 302 302 302 301 300 300 299 297 297 297 293 291 289 286 285 285 281 277 274 272 270 266 262 260 257 254 253 252 251 249 249 248 246 244 245 245 245 245 245
301 301 302 302 303 303 302 302 302 300 299 298 297 298 299 296 292 291 289 287 287 284 279 275 274 271 268 265 262 258 256 254 253 251 250 249 249 248 247 245 244 245 245 245
301 300 302 303 303 303 302 302 303 302 301 300 299 300 299 297 295 293 291 288 287 286 283 279 276 274 270 267 263 260 257 255 252 250 248 248 248 248 246 245 244 245 245 245
300 300 301 302 303 303 302 302 301 300 299 299 301 302 300 297 294 293 292 291 289 287 285 282 279 277 273 268 264 260 258 256 253 250 248 246 247 246 245 245 245 244 244 245
300 299 300 300 302 303 302 301 301 299 299 297 299 301 300 298 295 292 291 291 291 288 285 284 282 278 275 271 267 263 259 257 254 250 247 245 245 244 244 245 245 245 245 245
300 299 300 301 302 303 302 302 301 299 297 296 297 300 300 297 295 293 292 291 291 289 287 286 285 282 278 274 269 266 262 259 255 250 246 245 244 244 245 246 246 246 247 246
301 299 299 301 301 302 302 302 301 299 297 295 297 298 298 296 294 293 292 290 290 290 287 286 285 284 281 277 272 267 265 260 256 251 247 246 245 245 245 246 246 247 247 248
302 301 300 299 299 299 299 300 299 299 298 296 297 297 297 296 295 293 292 291 289 288 287 285 285 284 281 276 273 269 266 262 258 252 248 246 245 245 245 246 247 247 247 248
302 302 301 299 298 299 299 300 299 299 299 298 298 297 297 297 295 293 292 290 289 288 288 287 285 284 281 277 274 270 265 261 258 254 251 248 246 246 246 246 248 249 249 248
302 302 302 302 300 299 300 301 300 300 301 299 299 298 298 298 296 295 294 292 290 289 288 287 287 285 281 278 274 269 265 262 258 256 253 250 249 249 248 246 248 250 250 249
301 301 302 302 301 300 303 302 301 301 301 300 299 299 299 298 297 296 295 293 292 289 288 287 287 286 283 279 275 270 266 263 259 257 254 251 250 250 248 247 248 250 251 251
300 300 301 302 301 300 301 302 302 301 300 300 300 300 299 298 296 296 295 294 293 291 290 288 287 285 283 279 274 270 267 263 261 258 255 253 251 251 250 249 249 250 251 251
300 300 300 300 300 301 303 302 301 300 300 301 301 300 299 298 296 296 294 293 292 292 290 289 287 285 282 278 275 272 268 264 261 258 256 254 253 252 251 251 250 251 251 251
300 300 300 300 300 301 303 303 302 301 303 302 301 300 299 297 296 295 294 294 292 291 290 289 287 284 282 279 276 274 269 266 262 260 258 257 255 254 254 253 253 251 251 251
301 300 300 302 302 302 303 302 302 302 302 302 301 301 299 298 296 296 295 293 292 292 290 288 287 284 283 281 277 274 270 267 264 261 260 259 258 255 254 255 254 253 252 253
301 301 301 302 302 302 302 302 303 303 303 302 301 300 298 297 296 295 295 294 293 292 291 288 287 284 283 282 278 274 272 269 266 264 264 262 260 258 255 256 256 255 254 253
301 301 302 303 304 303 303 303 304 305 305 305 303 301 299 298 296 295 294 294 293 293 290 287 286 284 283 283 281 278 274 271 268 267 266 264 263 261 259 257 256 255 254 253
303 303 304 304 304 303 303 304 304 304 305 305 305 304 302 300 298 296 294 293 293 293 291 288 286 284 283 283 281 279 276 273 270 269 267 266 264 263 262 260 258 256 254 253
304 304 305 306 306 305 305 305 305 305 306 305 306 306 304 302 300 298 295 293 294 293 292 289 287 286 284 282 282 280 277 274 272 270 268 267 265 265 264 262 261 259 256 254
Height
5726 5723 5719 5716 5712 5708 5704 5701 5698 5696 5693 5691 5688 5686 5684 5681 5679 5678 5676 5675 5674 5674 5674 5675 5676 5677 5678 5679 5680 5682 5683 5685 5687 5688 5691 5692 5694 5695 5697 5699 5701 5705 5709 5714
5719 5715 5711 5707 5703 5699 5696 5693 5689 5686 5683 5681 5678 5676 5673 5670 5668 5666 5664 5662 5661 5661 5661 5662 5663 5664 5665 5666 5667 5669 5670 5672 5674 5676 5678 5679 5681 5683 5685 5687 5689 5693 5697 5701
5710 5707 5702 5699 5695 5691 5687 5684 5680 5677 5674 5671 5668 5666 5664 5660 5656 5654 5652 5650 5649 5648 5648 5649 5650 5651 5652 5653 5655 5656 5658 5659 5661 5663 5665 5667 5669 5671 5673 5675 5678 5682 5685 5690
5701 5698 5694 5690 5686 5682 5678 5675 5671 5668 5664 5661 5659 5654 5654 5649 5646 5643 5641 5639 5637 5636 5636 5637 5637 5638 5639 5640 5642 5643 5645 5646 5648 5650 5652 5654 5656 5659 5661 5664 5667 5670 5674 5679
5693 5689 5685 5682 5678 5673 5669 5665 5662 5658 5655 5652 5649 5644 5643 5639 5636 5633 5630 5628 5626 5625 5625 5625 5625 5625 5626 5627 5628 5630 5632 5633 5635 5637 5639 5641 5644 5647 5649 5652 5655 5659 5663 5667
5685 5681 5677 5673 5669 5664 5660 5657 5653 5649 5645 5642 5640 5634 5632 5628 5625 5623 5621 5618 5616 5615 5614 5613 5613 5613 5613 5614 5615 5616 5618 5620 5622 5624 5626 5629 5631 5634 5637 5640 5643 5647 5651 5655
5676 5672 5668 5664 5660 5656 5652 5648 5644 5639 5635 5632 5630 5625 5623 5619 5616 5613 5611 5609 5606 5604 5603 5602 5601 5601 5601 5601 5601 5603 5604 5606 5608 5611 5613 5616 5619 5622 5625 5628 5632 5635 5639 5643
5667 5663 5659 5655 5651 5647 5643 5639 5636 5631 5626 5623 5619 5616 5614 5610 5606 5603 5601 5599 5596 5594 5593 5591 5590 5589 5588 5588 5588 5589 5591 5593 5595 5597 5600 5603 5606 5609 5612 5616 5619 5623 5626 5630
5657 5654 5650 5646 5642 5638 5634 5630 5627 5622 5616 5613 5610 5608 5605 5600 5597 5594 5591 5589 5586 5584 5582 5581 5579 5578 5577 5576 5575 5576 5577 5579 5581 5584 5587 5590 5593 5597 5600 5603 5607 5610 5614 5617
5648 5645 5642 5637 5633 5629 5626 5621 5618 5612 5607 5603 5601 5598 5595 5591 5588 5585 5582 5579 5577 5574 5572 5570 5568 5566 5565 5563 5562 5563 5564 5566 5568 5570 5574 5577 5581 5584 5588 5591 5594 5597 5600 5604
5639 5635 5632 5628 5624 5621 5617 5613 5608 5604 5600 5595 5591 5592 5586 5582 5579 5576 5573 5569 5567 5564 5562 5559 5557 5555 5553 5551 5550 5550 5551 5552 5554 5557 5561 5565 5568 5571 5575 5578 5581 5584 5587 5591
5629 5626 5622 5619 5616 5611 5608 5604 5600 5596 5592 5587 5583 5584 5577 5573 5569 5566 5563 5560 5557 5555 5552 5549 5547 5545 5542 5540 5539 5538 5539 5540 5542 5544 5548 5552 5555 5559 5562 5565 5568 5571 5575 5578
5620 5617 5613 5610 5608 5604 5599 5595 5591 5587 5582 5579 5575 5576 5568 5564 5561 5557 5554 5551 5548 5546 5543 5540 5537 5534 5532 5530 5529 5528 5528 5529 5530 5532 5535 5539 5543 5546 5550 5553 5556 5559 5562 5565
5611 5608 5605 5602 5597 5593 5590 5586 5582 5577 5573 5570 5567 5565 5560 5555 5552 5548 5545 5542 5539 5536 5534 5531 5528 5525 5523 5520 5519 5518 5518 5518 5519 5521 5524 5527 5531 5534 5537 5540 5543 5546 5549 5552
5602 5599 5596 5592 5588 5584 5581 5577 5573 5569 5565 5561 5558 5554 5551 5546 5542 5539 5536 5533 5530 5527 5525 5522 5519 5516 5513 5511 5509 5508 5508 5508 5508 5510 5512 5516 5519 5522 5525 5528 5530 5533 5536 5539
5593 5590 5587 5584 5580 5575 5571 5568 5564 5560 5556 5551 5548 5545 5541 5537 5533 5529 5526 5523 5520 5518 5515 5512 5510 5507 5504 5501 5499 5498 5497 5497 5498 5500 5502 5504 5507 5510 5512 5515 5517 5520 5523 5525
5584 5581 5577 5574 5570 5566 5563 5560 5555 5551 5547 5543 5539 5536 5532 5528 5524 5520 5517 5514 5511 5508 5505 5502 5500 5497 5495 5492 5490 5489 5488 5488 5488 5489 5491 5493 5496 5498 5500 5503 5505 5507 5510 5512
5576 5571 5567 5564 5561 5557 5557 5550 5546 5541 5538 5534 5530 5526 5522 5519 5515 5511 5507 5504 5501 5498 5495 5493 5490 5487 5485 5483 5481 5479 5479 5479 5479 5479 5481 5483 5484 5487 5489 5491 5493 5495 5497 5499
5566 5562 5558 5554 5550 5547 5546 5541 5536 5532 5529 5525 5521 5517 5513 5509 5505 5502 5497 5494 5491 5488 5485 5483 5480 5478 5475 5473 5472 5471 5470 5469 5469 5470 5471 5472 5474 5475 5477 5479 5481 5483 5485 5487
5557 5553 5549 5544 5539 5537 5537 5532 5526 5523 5519 5516 5511 5507 5503 5499 5495 5493 5488 5484 5481 5478 5475 5473 5470 5468 5466 5464 5463 5462 5461 5460 5460 5460 5460 5461 5462 5464 5465 5467 5469 5471 5473 5474
5548 5543 5539 5535 5529 5528 5526 5521 5516 5513 5511 5505 5500 5496 5492 5488 5485 5482 5478 5474 5471 5468 5465 5463 5460 5458 5456 5454 5453 5452 5451 5451 5450 5450 5450 5451 5451 5453 5453 5455 5457 5458 5460 5461
5538 5534 5530 5525 5521 5520 5515 5511 5507 5503 5498 5494 5490 5486 5482 5478 5474 5471 5467 5464 5461 5458 5455 5453 5451 5449 5447 5445 5444 5443 5442 5442 5441 5441 5441 5441 5441 5442 5442 5444 5445 5446 5447 5449
5530 5526 5521 5518 5515 5510 5505 5501 5497 5493 5489 5485 5480 5476 5472 5468 5465 5461 5458 5454 5451 5448 5445 5443 5441 5439 5437 5436 5434 5434 5433 5432 5432 5431 5431 5431 5431 5431 5432 5432 5433 5434 5435 5437
5521 5517 5512 5508 5505 5500 5496 5492 5488 5484 5479 5475 5470 5466 5462 5458 5455 5452 5448 5445 5442 5439 5436 5434 5432 5430 5428 5427 5425 5424 5423 5423 5422 5422 5421 5421 5421 5421 5422 5422 5423 5424 5424 5426
5512 5507 5503 5499 5496 5491 5487 5483 5479 5474 5469 5465 5461 5456 5452 5449 5445 5442 5439 5436 5433 5430 5428 5426 5424 5422 5420 5419 5417 5416 5414 5414 5413 5412 5412 5412 5412 5412 5411 5412 5412 5414 5414 5415
5504 5499 5495 5491 5487 5482 5478 5474 5470 5465 5460 5456 5452 5448 5443 5439 5436 5433 5430 5427 5425 5422 5420 5417 5416 5414 5412 5411 5409 5408 5406 5405 5404 5403 5403 5402 5402 5402 5402 5402 5403 5403 5405 5405